| time (UTC) | temp F | wind direction | speed knots | gust knots | rain 1hr in | rain 24hr in | rain mn in | humidity % | barometer mb |
| 20260904054518 | 77 | 186 | 4.3 | 7.8 | 0.00 | 0.05 | 0.00 | 87 | 1007.3 |
| 20260904053017 | 77 | 170 | 4.3 | 8.7 | 0.00 | 0.05 | 0.00 | 87 | 1007.2 |
| 20260904051600 | 78 | 169 | 5.2 | 7.8 | 0.00 | 0.05 | 0.00 | 87 | 1007.1 |
| 20260904050059 | 77 | 169 | 5.2 | 7.0 | 0.00 | 0.05 | 0.00 | 86 | 1007.2 |
| 20260904044542 | 77 | 169 | 4.3 | 7.0 | 0.00 | 0.05 | 0.00 | 81 | 1007.2 |
| 20260904043037 | 76 | 146 | 0.9 | 3.5 | 0.00 | 0.05 | 0.00 | 82 | 1007.3 |
| 20260904041518 | 77 | 160 | 2.6 | 5.2 | 0.00 | 0.05 | 0.00 | 83 | 1007.3 |
| 20260904040016 | 77 | 167 | 3.5 | 6.1 | 0.00 | 0.05 | 0.00 | 85 | 1007.2 |
| 20260904034602 | 78 | 153 | 4.3 | 7.8 | 0.00 | 0.05 | 0.00 | 86 | 1007.1 |
| 20260904033107 | 78 | 166 | 3.5 | 7.0 | 0.00 | 0.05 | 0.00 | 85 | 1007.3 |
| 20260904031538 | 77 | 136 | 3.5 | 5.2 | 0.00 | 0.05 | 0.00 | 85 | 1007.3 |
| 20260904030037 | 78 | 141 | 2.6 | 5.2 | 0.00 | 0.05 | 0.00 | 86 | 1007.2 |
| 20260904024518 | 78 | 143 | 0.9 | 3.5 | 0.00 | 0.05 | 0.00 | 86 | 1007.1 |
| 20260904023015 | 79 | 120 | 0.9 | 1.7 | 0.00 | 0.05 | 0.00 | 87 | 1007.1 |
| 20260904021616 | 79 | 142 | 0.9 | 1.7 | 0.00 | 0.05 | 0.00 | 87 | 1007.1 |
| 20260904020100 | 80 | 206 | 0.0 | 0.9 | 0.00 | 0.05 | 0.00 | 86 | 1006.8 |
| 20260904014636 | 80 | 170 | 0.9 | 4.3 | 0.00 | 0.05 | 0.00 | 86 | 1006.6 |
| 20260904013035 | 81 | 186 | 3.5 | 7.0 | 0.00 | 0.05 | 0.00 | 85 | 1006.3 |
| 20260904011532 | 81 | 161 | 5.2 | 8.7 | 0.00 | 0.05 | 0.00 | 85 | 1006.1 |
| 20260904010013 | 82 | 181 | 5.2 | 7.8 | 0.00 | 0.05 | 0.00 | 84 | 1006.1 |
| 20260904004513 | 82 | 169 | 4.3 | 7.0 | 0.00 | 0.05 | 0.00 | 83 | 1006.1 |
| 20260904003106 | 83 | 184 | 3.5 | 6.1 | 0.00 | 0.05 | 0.00 | 82 | 1006.1 |
| 20260904001554 | 84 | 179 | 3.5 | 6.1 | 0.00 | 0.05 | 0.00 | 81 | 1006.2 |
| 20260904000035 | 85 | 190 | 4.3 | 8.7 | 0.00 | 0.05 | 0.00 | 79 | 1006.0 |
| 20260903234535 | 85 | 186 | 4.3 | 9.6 | 0.00 | 0.05 | 0.00 | 77 | 1005.8 |
| 20260903233017 | 84 | 195 | 6.1 | 9.6 | 0.00 | 0.05 | 0.00 | 78 | 1005.8 |
| 20260903231515 | 83 | 198 | 3.5 | 7.8 | 0.00 | 0.05 | 0.00 | 79 | 1006.0 |
| 20260903230106 | 83 | 203 | 6.1 | 12.2 | 0.00 | 0.05 | 0.00 | 77 | 1005.8 |
| 20260903224558 | 84 | 207 | 7.0 | 14.8 | 0.00 | 0.05 | 0.00 | 75 | 1005.6 |
| 20260903223039 | 86 | 213 | 10.4 | 14.8 | 0.00 | 0.05 | 0.00 | 70 | 1005.2 |
| 20260903221539 | 87 | 234 | 9.6 | 18.2 | 0.00 | 0.05 | 0.00 | 69 | 1005.3 |
| 20260903220021 | 86 | 233 | 7.0 | 15.6 | 0.00 | 0.05 | 0.00 | 70 | 1005.5 |
| 20260903214535 | 87 | 223 | 9.6 | 14.8 | 0.00 | 0.05 | 0.00 | 71 | 1005.3 |
| 20260903213101 | 86 | 210 | 9.6 | 13.9 | 0.00 | 0.05 | 0.00 | 71 | 1005.5 |
| 20260903211600 | 86 | 213 | 8.7 | 16.5 | 0.00 | 0.05 | 0.00 | 69 | 1006.0 |
| 20260903210042 | 86 | 199 | 11.3 | 17.4 | 0.00 | 0.05 | 0.00 | 70 | 1005.7 |
| 20260903204541 | 87 | 226 | 8.7 | 16.5 | 0.00 | 0.05 | 0.00 | 70 | 1005.5 |
| 20260903203022 | 86 | 205 | 10.4 | 16.5 | 0.00 | 0.05 | 0.00 | 68 | 1005.9 |
| 20260903201529 | 86 | 220 | 7.8 | 20.0 | 0.00 | 0.05 | 0.00 | 70 | 1005.9 |
| 20260903200003 | 86 | 192 | 13.0 | 21.7 | 0.00 | 0.05 | 0.00 | 70 | 1005.4 |
| 20260903194604 | 85 | 180 | 13.9 | 0.0 | 0.00 | 0.00 | 0.00 | 71 | 1005.6 |
| 20260903193037 | 85 | 208 | 11.3 | 19.1 | 0.00 | 0.05 | 0.00 | 70 | 1006.0 |
| 20260903191536 | 84 | 200 | 12.2 | 18.2 | 0.00 | 0.05 | 0.00 | 71 | 1006.2 |
| 20260903190003 | 84 | 177 | 13.0 | 24.3 | 0.00 | 0.05 | 0.00 | 70 | 1006.2 |
| 20260903184503 | 84 | 172 | 13.0 | 23.5 | 0.00 | 0.05 | 0.00 | 69 | 1006.1 |
| 20260903183043 | 84 | 208 | 17.4 | 23.5 | 0.00 | 0.05 | 0.00 | 70 | 1006.2 |
| 20260903181546 | 83 | 178 | 12.2 | 21.7 | 0.00 | 0.05 | 0.00 | 72 | 1006.5 |
| 20260903180043 | 82 | 169 | 8.7 | 20.0 | 0.00 | 0.05 | 0.00 | 76 | 1006.5 |
| 20260903174516 | 80 | 209 | 10.4 | 17.4 | 0.00 | 0.05 | 0.00 | 76 | 1006.4 |
| 20260903173102 | 80 | 174 | 13.0 | 20.9 | 0.00 | 0.05 | 0.00 | 75 | 1006.4 |
| 20260903171553 | 81 | 176 | 13.0 | 22.6 | 0.00 | 0.05 | 0.05 | 73 | 1006.6 |
| 20260903170100 | 81 | 194 | 13.0 | 20.0 | 0.00 | 0.05 | 0.05 | 76 | 1006.3 |
| 20260903164632 | 79 | 179 | 11.3 | 18.2 | 0.00 | 0.05 | 0.05 | 78 | 1006.7 |
| 20260903163012 | 79 | 154 | 15.6 | 22.6 | 0.00 | 0.05 | 0.05 | 76 | 1007.0 |
| 20260903161510 | 81 | 193 | 11.3 | 26.9 | 0.00 | 0.05 | 0.05 | 74 | 1007.7 |
| 20260903160054 | 79 | 183 | 16.5 | 24.3 | 0.00 | 0.05 | 0.05 | 75 | 1007.8 |
| 20260903154556 | 79 | 193 | 8.7 | 21.7 | 0.00 | 0.05 | 0.05 | 77 | 1007.9 |
| 20260903153034 | 78 | 181 | 8.7 | 20.9 | 0.00 | 0.05 | 0.05 | 80 | 1007.8 |
| 20260903151544 | 77 | 167 | 9.6 | 18.2 | 0.00 | 0.05 | 0.05 | 83 | 1007.8 |
| 20260903150015 | 77 | 134 | 8.7 | 20.0 | 0.00 | 0.05 | 0.05 | 84 | 1008.1 |
| 20260903144520 | 76 | 195 | 7.8 | 17.4 | 0.00 | 0.05 | 0.05 | 86 | 1008.1 |
| 20260903143100 | 75 | 134 | 7.8 | 16.5 | 0.00 | 0.05 | 0.05 | 85 | 1008.0 |
| 20260903141556 | 75 | 113 | 7.0 | 14.8 | 0.01 | 0.05 | 0.05 | 87 | 1007.8 |
| 20260903140051 | 73 | 129 | 7.8 | 19.1 | 0.04 | 0.05 | 0.05 | 87 | 1008.0 |
| 20260903134542 | 72 | 167 | 7.8 | 15.6 | 0.04 | 0.05 | 0.05 | 87 | 1007.9 |
| 20260903133019 | 71 | 191 | 9.6 | 14.8 | 0.04 | 0.05 | 0.05 | 87 | 1007.6 |
| 20260903131517 | 72 | 130 | 5.2 | 11.3 | 0.03 | 0.04 | 0.04 | 87 | 1008.7 |
| 20260903130100 | 73 | 186 | 3.5 | 8.7 | 0.00 | 0.01 | 0.01 | 87 | 1008.9 |
| 20260903124608 | 72 | 165 | 3.5 | 8.7 | 0.00 | 0.01 | 0.01 | 87 | 1008.5 |
| 20260903123042 | 0 | 0.0 | 0.0 | 0.00 | 0.01 | 0.01 | 1008.0 | ||
| 20260903121537 | 0 | 0.0 | 0.0 | 0.00 | 0.01 | 0.01 | 1008.2 | ||
| 20260903120036 | 0 | 0.0 | 0.0 | 0.00 | 0.01 | 0.01 | 1008.3 | ||
| 20260903114540 | 0 | 0.0 | 0.0 | 0.00 | 0.01 | 0.01 | 1008.1 | ||
| 20260903113024 | 0 | 0.0 | 0.0 | 0.00 | 0.01 | 0.01 | 1008.1 | ||
| 20260903111520 | 0 | 0.0 | 0.0 | 0.00 | 0.01 | 0.01 | 1007.8 | ||
| 20260903110015 | 0 | 0.0 | 0.0 | 0.00 | 0.01 | 0.01 | 1008.6 | ||
| 20260903104511 | 0 | 0.0 | 0.0 | 0.00 | 0.01 | 0.01 | 1008.4 | ||
| 20260903103049 | 0 | 0.0 | 0.0 | 0.00 | 0.01 | 0.01 | 1008.7 | ||
| 20260903101545 | 0 | 0.0 | 0.0 | 0.01 | 0.01 | 0.01 | 1009.4 | ||
| 20260903100030 | 0 | 0.0 | 0.0 | 0.01 | 0.01 | 0.01 | 1009.8 | ||
| 20260903094524 | 73 | 105 | 6.1 | 17.4 | 0.01 | 0.01 | 0.01 | 78 | 1008.8 |
| 20260903093003 | 72 | 175 | 9.6 | 15.6 | 0.01 | 0.01 | 0.01 | 84 | 1007.8 |
| 20260903091600 | 72 | 210 | 8.7 | 16.5 | 0.00 | 0.00 | 0.00 | 87 | 1008.8 |
| 20260903090040 | 73 | 249 | 3.5 | 13.9 | 0.00 | 0.00 | 0.00 | 86 | 1009.4 |
| 20260903084538 | 75 | 197 | 10.4 | 15.6 | 0.00 | 0.00 | 0.00 | 87 | 1008.9 |
| 20260903083020 | 74 | 238 | 2.6 | 7.0 | 0.00 | 0.00 | 0.00 | 86 | 1009.0 |
| 20260903081519 | 75 | 172 | 5.2 | 6.1 | 0.00 | 0.00 | 0.00 | 87 | 1007.7 |
| 20260903074604 | 73 | 134 | 3.5 | 7.0 | 0.00 | 0.00 | 0.00 | 70 | 1007.7 |
| 20260903073052 | 73 | 183 | 0.9 | 4.3 | 0.00 | 0.00 | 0.00 | 71 | 1007.6 |
| 20260903071548 | 73 | 143 | 2.6 | 6.1 | 0.00 | 0.00 | 0.00 | 73 | 1007.6 |
| 20260903070046 | 73 | 131 | 3.5 | 7.0 | 0.00 | 0.00 | 0.00 | 72 | 1007.9 |
| 20260903064544 | 73 | 163 | 2.6 | 4.3 | 0.00 | 0.00 | 0.00 | 73 | 1007.9 |
| 20260903063044 | 73 | 160 | 3.5 | 5.2 | 0.00 | 0.00 | 0.00 | 69 | 1008.0 |
| 20260903061543 | 73 | 170 | 1.7 | 3.5 | 0.00 | 0.97 | 0.00 | 66 | 1007.9 |
| 20260903060042 | 72 | 126 | 0.9 | 3.5 | 0.00 | 0.97 | 0.00 | 70 | 1008.0 |